Lid_Strength_Index
1 0 -0 -0 0 0 1 0 0 0 0 0 0 0 0 0 0 0 0 0 1 1 0 1 1 -0 0 0 1 1 2 2 5 4 3 2 2 3 4 3 3 3 3
0 0 1 0 0 0 1 0 0 0 0 0 0 0 0 0 0 0 1 0 1 2 1 1 1 0 0 -0 1 -0 1 1 4 2 3 3 3 2 3 3 3 4 3
0 0 0 1 1 1 1 0 0 0 0 0 0 1 1 1 1 0 1 1 2 2 2 1 1 0 1 1 1 2 3 3 2 4 5 4 4 4 4 3 3 2 3
1 1 1 1 1 1 1 1 0 0 1 1 1 1 1 1 1 0 1 1 1 1 2 1 0 0 0 0 2 2 2 3 3 4 5 5 5 3 4 5 5 4 3
2 1 1 0 1 1 1 1 1 1 1 1 1 1 1 1 1 1 1 1 1 1 1 1 1 1 2 2 3 2 2 4 5 6 6 6 7 7 6 5 5 4 2
2 2 1 1 1 1 1 1 1 1 1 1 1 1 1 1 5 5 1 1 1 1 3 2 1 3 4 5 5 5 4 5 7 7 7 7 5 5 5 6 5 5 5
1 1 1 1 1 1 1 1 1 2 1 1 1 1 2 1 9 8 6 1 1 2 3 2 3 3 4 5 7 6 6 7 5 5 6 5 4 4 3 3 3 4 3
2 2 1 1 1 1 1 1 2 1 2 2 2 1 2 1 10 9 7 1 1 2 3 2 4 4 5 6 7 7 7 6 7 7 4 2 2 2 1 2 2 2 1
2 2 1 1 1 1 2 2 1 2 2 2 1 2 2 2 11 10 7 2 2 2 2 3 4 5 9 9 7 7 8 8 7 8 8 8 8 8 5 3 5 4 3
1 1 1 1 1 1 2 2 1 1 2 2 2 2 3 2 11 10 7 3 3 3 4 4 7 7 10 9 8 8 10 9 8 7 7 7 5 7 8 3 3 4 3
1 1 1 1 1 1 1 1 1 2 2 2 2 2 2 2 8 11 9 4 5 6 7 7 7 10 11 11 10 9 9 8 8 7 6 6 5 5 6 4 1 2 2
1 1 1 1 1 1 1 1 2 2 2 3 3 3 2 2 9 10 9 7 6 6 7 7 7 11 12 11 10 10 9 9 7 7 6 7 7 6 5 4 1 -0 -0
1 1 1 1 1 1 1 2 2 2 3 3 3 3 3 5 7 10 9 9 8 6 6 8 11 13 12 11 10 10 9 8 7 8 8 7 5 4 2 1 0 -1 -1
2 2 1 1 2 1 1 1 2 2 3 3 4 4 3 5 6 8 7 8 8 7 9 10 12 11 11 10 9 9 8 8 7 7 7 6 5 4 4 3 3 1 1
2 2 2 1 1 2 1 2 2 2 4 4 4 3 3 5 6 8 8 6 7 8 10 12 12 12 11 11 10 8 8 8 7 7 7 6 6 4 4 2 2 1 2
2 2 2 2 2 2 2 2 7 7 9 11 10 7 4 8 10 11 11 10 11 12 11 13 13 12 12 11 11 9 8 8 7 7 6 6 6 4 4 3 3 2 2
2 2 2 2 2 2 2 2 4 3 8 9 10 11 10 9 12 12 12 12 12 12 11 11 12 12 11 11 10 9 9 8 7 7 6 5 4 4 5 4 3 2 2
1 4 2 2 2 2 2 3 2 3 4 5 9 11 11 11 11 13 13 12 12 10 10 10 11 12 12 11 10 9 9 8 7 6 5 5 4 4 4 3 3 3 2
2 2 2 2 2 2 2 2 2 3 4 6 8 9 12 13 13 12 11 10 10 9 9 10 9 11 11 10 10 9 8 7 7 6 5 4 4 4 4 4 3 7 5
1 5 4 2 2 2 2 3 3 4 6 7 9 10 12 12 11 11 9 9 9 9 9 9 11 10 10 10 9 9 8 7 7 5 5 4 3 3 4 3 3 3 2
2 2 8 2 2 3 3 3 4 5 7 8 10 11 14 10 11 10 9 8 8 10 10 11 11 10 9 9 8 7 7 6 6 4 4 4 3 4 3 3 3 2 1
3 4 4 4 4 5 5 4 5 7 8 10 11 12 15 9 9 9 8 8 8 8 8 8 9 9 8 8 7 6 6 6 5 5 4 4 3 4 3 3 3 2 1
4 4 4 4 5 7 6 6 7 8 9 10 10 9 9 9 8 8 9 8 8 8 7 7 8 8 7 7 5 5 6 5 5 4 4 3 3 3 3 3 2 1 1
4 4 4 4 4 6 6 7 7 10 9 9 9 10 10 9 9 9 9 8 7 7 6 6 6 6 7 6 5 5 4 4 3 3 3 3 4 5 3 3 2 1 1
2 2 4 4 4 5 5 6 7 7 8 8 8 9 9 9 9 8 8 8 7 7 7 6 6 6 5 4 4 5 7 12 5 6 3 3 3 3 3 3 2 1 1
1 2 3 5 4 5 5 6 6 6 7 7 8 8 8 8 8 8 7 7 7 7 6 6 5 5 5 4 4 8 13 12 7 11 3 2 3 3 3 3 2 2 1